Regional Weather Roundup
Issued by NWS Little Rock, AR

Home | Current Version | Previous Version | Graphics & Text | Print | Product List | Glossary On
Versions: 1 2 3 4 5 6 7 8 9 10 11 12 13 14 15 16 17 18 19 20 21 22 23 24 25 26 27 28 29 30 31 32 33 34 35 36 37 38 39 40 41 42 43 44 45 46 47 48 49
000
ASUS44 KLZK 050605
RWRLZK

WEATHER ROUNDUP FOR ARKANSAS
NATIONAL WEATHER SERVICE LITTLE ROCK AR
1200 AM CST THU MAR 05 2015

NOTE: "FAIR" INDICATES FEW OR NO CLOUDS BELOW 12,000 FEET WITH NO
SIGNIFICANT WEATHER AND/OR OBSTRUCTIONS TO VISIBILITY.

ARZ001-003-010-029-050700-
NORTHWEST ARKANSAS

CITY           SKY/WX    TMP DP  RH WIND       PRES   REMARKS
FAYETTEVILLE   CLOUDY    21  16  81 N5        30.35R WCI  15
6HR MIN TEMP:  20; 6HR MAX TEMP:  22; 6HR PCP:  0.02;

FORT SMITH     FLURRIES  26  19  74 N8        30.37R WCI  18
6HR MIN TEMP:  25; 6HR MAX TEMP:  29; 6HR PCP:  0.04;

HARRISON       CLOUDY    19  15  84 NW6       30.32R WCI  11
6HR MIN TEMP:  19; 6HR MAX TEMP:  20; 6HR PCP:  0.03;

BENTONVILLE    MOCLDY    21  14  73 N8        30.35R WCI  12
6HR MIN TEMP:  21; 6HR MAX TEMP:  21;

ROGERS         CLOUDY    20  16  84 N8        30.35R WCI  10
6HR MIN TEMP:  19; 6HR MAX TEMP:  21; 6HR PCP:  0.01;

SILOAM SPGS    CLOUDY    21  12  68 N12       30.36S WCI   9
6HR MIN TEMP:  21; 6HR MAX TEMP:  21;

HIGHFILL       CLOUDY    21  16  81 N9        30.34R WCI  11
6HR MIN TEMP:  21; 6HR MAX TEMP:  22; 6HR PCP:  0.01;

$$

ARZ004-005-016-050700-
NORTH CENTRAL ARKANSAS

CITY           SKY/WX    TMP DP  RH WIND       PRES   REMARKS
BATESVILLE     CLOUDY    21  18  86 N6        30.32F VSB 1/2 WCI  14
6HR MIN TEMP:  21; 6HR MAX TEMP:  27;

FLIPPIN        MOCLDY    21  10  63 CALM      30.34S
6HR MIN TEMP:  21; 6HR MAX TEMP:  21;

MTN HOME       CLOUDY    20  13  74 N3        30.32F
6HR MIN TEMP:  20; 6HR MAX TEMP:  21;

$$

ARZ040-041-050700-
WEST CENTRAL ARKANSAS

CITY           SKY/WX    TMP DP  RH WIND       PRES   REMARKS
MENA           CLOUDY    30  27  86 CALM      30.26S
MOUNT IDA      LGT SNOW  26  21  81 VRB5      30.26R WCI  20
6HR MIN TEMP:  26; 6HR MAX TEMP:  34; 6HR PCP:  0.35;

$$

ARZ009-017-025-026-028-050700-
NORTHEAST ARKANSAS

CITY           SKY/WX    TMP DP  RH WIND       PRES   REMARKS
CORNING        LGT SNOW  19  18  93 NE17      30.35F VSB 1   WCI   4
JONESBORO      FOG       19  17  92 N16G24    30.29F VSB 3/4 WCI   4
6HR MIN TEMP:  19; 6HR MAX TEMP:  25; 6HR PCP:  0.42;

NEWPORT        LGT SNOW  21  19  92 N23       30.33R FOG     WCI   5
6HR MIN TEMP:  21; 6HR MAX TEMP:  28; 6HR PCP:  0.19;

WALNUT RIDGE   CLOUDY    19  16  86 N14       30.35S VSB 1   WCI   6
6HR MIN TEMP:  19; 6HR MAX TEMP:  25; 6HR PCP:  0.02;

BLYTHEVILLE    FOG       20  18  92 N26       30.30F VSB 1/2 WCI   2
6HR MIN TEMP:  20; 6HR MAX TEMP:  27;

$$

ARZ022-023-033-042-044-050700-
CENTRAL ARKANSAS

CITY           SKY/WX    TMP DP  RH WIND       PRES   REMARKS
LITTLE ROCK    LGT SNOW  25  20  81 N15G24    30.31R VSB 1   WCI  13
6HR MIN TEMP:  25; 6HR MAX TEMP:  33; 6HR PCP:  0.68;

N LITTLE ROCK  CLOUDY    22  22  98 N16G29    30.28  WCI   9
JACKSONVILLE   LGT SNOW  23  20  87 N15       30.30R FOG     WCI  10
6HR MIN TEMP:  23; 6HR MAX TEMP:  31;

SEARCY         LGT SNOW  22  19  89 N18       30.30F FOG     WCI   7
6HR MIN TEMP:  22; 6HR MAX TEMP:  29; 6HR PCP:  0.37;

HOT SPRINGS    MIX PCPN  27  20  75 NE12G22   30.27R WCI  17
6HR MIN TEMP:  27; 6HR MAX TEMP:  34; 6HR PCP:  0.44;

RUSSELLVILLE   CLOUDY    24  17  74 N8        30.36R WCI  15
6HR MIN TEMP:  23; 6HR MAX TEMP:  29;

CLINTON        LGT SNOW  23  18  80 CALM      30.34R
$$

ARZ036-050700-
EAST ARKANSAS

CITY           SKY/WX    TMP DP  RH WIND       PRES   REMARKS
WEST MEMPHIS   MIX PCPN  22  20  92 N24G37    30.25  FOG     WCI   5
$$

ARZ050-053-066-070-073-050700-
SOUTHWEST ARKANSAS

CITY           SKY/WX    TMP DP  RH WIND       PRES   REMARKS
ARKADELPHIA    LGT SNOW  28  28 100 N15       30.25R FOG     WCI  16
6HR MIN TEMP:  28; 6HR MAX TEMP:  36; 6HR PCP:  0.91;

CAMDEN         RAIN      32  28  86 CALM      30.17F
TEXARKANA      MIX PCPN  32  32 100 NE17G24   30.22R FOG     WCI  21
6HR MIN TEMP:  32; 6HR MAX TEMP:  40; 6HR PCP:  0.97;

EL DORADO      FRZ RAIN  32  30  92 N15G24    30.14F FOG     WCI  22
6HR MIN TEMP:  32; 6HR MAX TEMP:  39;

DE QUEEN       CLOUDY    31  25  78 N9G20     30.27R WCI  23
6HR MIN TEMP:  31; 6HR MAX TEMP:  39;

$$

ARZ056-057-069-050700-
SOUTHEAST ARKANSAS

CITY           SKY/WX    TMP DP  RH WIND       PRES   REMARKS
PINE BLUFF     MIX PCPN  27  24  89 N15G23    30.27R FOG     WCI  15
6HR MIN TEMP:  27; 6HR MAX TEMP:  33;

STUTTGART      CLOUDY    25  19  80 N31G38    30.23S WCI   8
6HR MIN TEMP:  25; 6HR MAX TEMP:  32; 6HR PCP:  0.22;

MONTICELLO     MIX PCPN  30  27  88 N9G23     30.19S FOG     WCI  22
6HR MIN TEMP:  30; 6HR MAX TEMP:  37; 6HR PCP:  0.17;


$$




USA.gov is the U.S. government's official web portal to all federal, state and local government web resources and services.